sat.trackr.live / text

‹ back to catalog

ONEWEB-0052

NORAD 45156 · 2020-008AB

PAYLOAD ACTIVE UNKNOWN

§ Identity

Operator
Country
UK
Launch date
2020-02-06
Launch site
TYMSC
Launch vehicle
Mass (kg)
RCS (m²)

Purposes: comms

External: N2YO · Heavens-Above · Gunter

§ Orbital elements

Epoch: 2026-05-25T04:24:49.537152Z

Period
109.89 min
Inclination
87.8852°
Eccentricity
0.0002137
Mean motion
13.10370631 rev/d
Perigee alt
1,220.1 km
Apogee alt
1,223.3 km
Semi-major
7,599.9 km
B*
-7.4211e-4
RAAN
40.8414°
Arg perigee
89.7051°
Mean anomaly
270.4321°
Rev number
30,492

§ Raw data

ONEWEB-00521 45156U 20008AB  26145.18390668 -.00000246  00000+0 -74211-3 0  99912 45156  87.8852  40.8414 0002137  89.7051 270.4321 13.10370631304927

JSON: /api/v1/satellites/45156 · /tle

For live sub-satellite position, see the globe view (requires WebGL).

§ Visibility from observer

Set your observer location to see the next 7 days of passes ≥ 10°. The values pass through the URL so the page stays shareable.

No JS? Fill the form by hand. The geolocation button needs JavaScript.